Temp
60 60 60 60 60 60 60 60 60 61 61 61 61 61 61 61 61 56 60 74 71 72 77 74 75 74 72 68 70 66 58 53 57 61 60 65 64 72 79 76 77 76 79 82 80
60 60 60 60 60 60 60 60 60 60 61 61 61 60 60 60 55 59 72 73 73 74 75 72 68 70 66 65 67 63 55 63 67 67 62 67 67 71 72 74 74 77 83 83 80
59 60 60 60 60 59 59 59 60 60 61 60 60 60 60 59 59 70 77 74 74 75 75 75 73 68 60 62 65 63 61 71 70 72 71 70 68 71 69 67 74 75 79 79 78
59 59 59 59 59 59 59 59 60 60 60 60 60 60 60 57 57 74 76 74 74 75 75 73 66 61 57 59 65 60 70 70 74 73 69 70 73 69 70 72 79 82 84 81 76
58 58 59 59 59 59 58 58 59 59 59 59 60 60 57 56 63 78 78 75 74 76 74 70 63 63 57 61 64 63 69 70 74 70 72 73 71 71 71 77 78 80 82 80 79
58 58 58 58 58 58 58 58 58 58 58 59 60 61 58 55 75 77 75 74 74 72 72 70 68 69 63 62 62 68 70 71 71 71 68 70 69 73 76 77 76 76 77 79 78
58 57 58 58 58 58 58 58 57 58 59 60 61 62 59 64 76 76 75 70 75 75 72 71 74 70 65 65 67 67 64 69 71 68 65 71 65 67 75 74 74 74 77 77 76
57 57 57 57 58 58 58 58 57 58 60 61 62 59 58 72 70 74 73 76 78 77 74 75 76 68 65 67 69 62 59 55 67 69 68 68 62 71 74 72 71 75 77 77 74
57 57 57 57 57 57 57 57 58 61 62 63 57 56 59 74 73 78 78 78 79 77 74 86 74 68 67 58 55 56 51 53 64 68 71 66 66 70 74 73 72 72 75 76 71
57 56 56 57 57 57 56 56 59 61 62 66 69 58 64 70 78 80 75 80 78 75 72 71 65 60 56 55 47 50 52 53 57 67 68 67 66 73 72 73 72 69 73 72 70
57 56 56 56 56 56 52 59 60 58 60 62 64 64 71 78 82 78 80 78 76 69 61 64 58 53 58 59 61 58 56 55 64 69 62 63 62 67 66 67 68 68 70 70 69
56 56 56 56 56 56 51 61 61 59 52 68 68 70 75 77 69 75 81 72 68 61 63 60 54 63 65 65 62 60 57 58 63 69 63 65 64 64 65 67 70 70 69 69 67
55 56 56 56 55 54 51 62 62 57 53 62 67 67 69 72 67 69 75 71 65 61 61 58 63 69 67 62 61 57 56 58 59 66 65 63 59 60 64 65 67 65 66 67 68
55 55 55 55 55 47 57 63 60 58 47 58 63 68 68 72 67 77 79 74 64 62 63 60 67 67 63 62 63 54 64 66 63 58 52 60 49 56 58 59 62 61 61 62 64
55 55 55 54 44 48 61 59 60 61 39 67 67 74 68 69 70 71 79 73 64 64 63 60 61 61 61 64 67 62 67 65 63 57 51 54 51 53 57 57 60 61 60 60 61
55 55 55 50 43 50 55 55 59 47 40 61 68 65 62 68 69 70 72 74 72 64 63 64 69 68 67 70 69 71 64 58 53 50 45 51 51 50 53 58 59 60 61 61 61
55 55 52 53 51 52 52 57 45 39 61 60 61 64 62 62 65 66 64 60 57 51 52 60 62 66 71 63 65 61 52 43 43 43 43 52 49 56 60 64 68 63 60 60 60
53 52 48 52 47 51 54 50 36 53 53 64 63 64 59 62 61 63 60 57 58 57 51 50 49 63 69 65 60 58 54 44 39 39 45 52 47 56 61 65 67 65 62 60 59
51 42 42 47 52 52 50 38 42 49 60 57 60 56 55 60 60 58 57 57 62 61 54 48 52 65 69 69 67 57 52 56 48 44 43 47 53 59 60 60 61 60 60 58 57
41 39 43 52 55 51 45 42 46 58 61 59 49 55 49 53 55 54 54 62 61 64 61 56 50 65 68 67 64 63 64 51 45 40 37 44 48 51 52 54 57 58 58 58 58
41 41 54 55 54 48 38 40 51 60 61 55 51 51 52 52 53 51 56 63 65 64 61 57 53 61 61 57 58 57 53 51 50 45 40 38 45 57 58 58 58 60 60 60 59
38 40 55 57 45 40 39 47 54 58 59 57 56 55 52 53 51 52 54 60 67 65 56 56 50 48 57 67 65 61 58 54 45 45 43 43 46 62 63 63 63 61 62 61 62
34 38 54 55 39 39 45 52 55 54 54 54 53 56 55 50 46 52 56 65 66 63 56 56 47 42 47 54 58 57 60 57 51 47 43 43 46 63 63 63 64 62 62 62 60
35 36 43 47 46 45 43 46 47 57 56 57 55 55 51 47 50 49 54 62 62 64 64 60 48 47 42 49 55 53 59 58 54 43 48 47 55 57 57 60 61 62 62 61 59
35 36 39 38 42 43 44 47 46 47 54 55 49 50 47 41 44 45 49 51 57 61 59 54 47 49 53 56 58 60 60 58 54 54 51 58 54 61 58 60 61 63 61 59 59
34 35 38 36 42 43 43 43 46 49 49 48 46 49 47 42 44 41 44 44 46 52 49 51 46 48 51 58 58 56 62 63 59 57 56 57 55 59 58 61 61 62 61 60 60
40 40 37 38 39 39 40 43 46 47 50 52 50 47 45 47 49 50 50 51 51 48 45 46 45 45 42 52 55 50 58 62 61 59 61 54 59 55 54 61 62 61 62 62 62
MSLP
1021.59 1021.22 1020.88 1020.54 1020.21 1019.70 1019.28 1018.89 1018.52 1017.96 1017.62 1017.11 1016.69 1016.45 1016.10 1015.71 1015.07 1014.95 1014.07 1011.05 1010.95 1010.84 1011.05 1011.45 1011.51 1011.60 1011.66 1011.85 1012.08 1012.65 1013.65 1013.86 1013.54 1012.91 1012.70 1012.64 1012.44 1012.16 1011.82 1011.55 1011.15 1010.79 1010.37 1010.45 1011.55
1021.72 1021.32 1020.96 1020.57 1020.04 1019.52 1019.17 1018.73 1018.29 1017.87 1017.38 1016.79 1016.50 1016.22 1015.93 1015.69 1015.20 1013.66 1010.00 1010.05 1010.32 1010.61 1011.07 1011.41 1011.69 1011.63 1011.97 1011.93 1012.15 1012.57 1013.27 1012.51 1011.87 1011.75 1012.07 1012.25 1012.28 1012.10 1012.27 1011.71 1010.80 1010.02 1009.74 1010.40 1011.02
1021.90 1021.44 1020.94 1020.43 1019.91 1019.45 1018.97 1018.55 1018.12 1017.63 1017.15 1016.73 1016.46 1016.04 1015.73 1015.54 1014.62 1010.86 1009.08 1009.38 1010.16 1010.61 1010.84 1011.20 1011.54 1011.70 1012.01 1011.91 1011.77 1012.07 1012.10 1011.09 1010.87 1011.18 1011.29 1011.78 1012.16 1012.19 1012.26 1012.18 1010.22 1009.45 1009.93 1010.41 1011.33
1022.06 1021.41 1020.88 1020.41 1019.84 1019.29 1018.76 1018.21 1017.71 1017.27 1016.79 1016.45 1016.16 1015.87 1015.63 1015.45 1013.15 1009.39 1009.16 1008.94 1009.92 1010.62 1010.94 1011.19 1011.59 1011.93 1012.04 1011.89 1011.39 1011.65 1010.83 1010.63 1010.12 1010.30 1010.92 1011.28 1011.41 1011.64 1011.45 1010.03 1009.56 1009.36 1008.88 1009.83 1011.03
1021.99 1021.37 1020.82 1020.25 1019.60 1019.03 1018.47 1017.88 1017.34 1016.97 1016.63 1016.29 1016.04 1015.79 1015.55 1014.79 1011.88 1009.17 1009.23 1009.36 1010.22 1010.69 1010.95 1011.24 1011.59 1011.77 1011.82 1011.53 1011.24 1011.10 1010.38 1010.09 1009.43 1009.84 1009.72 1010.26 1010.49 1010.88 1010.45 1009.87 1010.06 1009.86 1009.55 1010.04 1010.95
1021.91 1021.30 1020.71 1020.04 1019.37 1018.70 1018.08 1017.45 1016.88 1016.47 1016.21 1015.99 1015.82 1015.66 1015.29 1013.60 1009.75 1009.40 1009.64 1009.99 1010.26 1010.50 1010.92 1011.00 1011.10 1011.06 1011.32 1011.19 1010.92 1010.30 1009.97 1009.45 1009.16 1008.90 1009.22 1009.66 1010.43 1010.72 1009.09 1009.57 1009.92 1009.93 1009.64 1010.44 1011.22
1021.66 1021.14 1020.57 1019.90 1019.13 1018.31 1017.54 1016.90 1016.38 1015.96 1015.69 1015.63 1015.46 1015.55 1014.80 1011.36 1009.46 1009.54 1009.61 1009.86 1010.03 1010.26 1010.45 1010.64 1010.66 1010.86 1011.16 1010.93 1010.42 1010.22 1010.18 1009.39 1008.70 1008.90 1009.42 1009.61 1010.90 1010.13 1008.99 1009.24 1009.62 1009.83 1010.64 1011.15 1011.26
1021.57 1020.99 1020.30 1019.61 1018.79 1017.86 1016.95 1016.30 1015.74 1015.19 1015.01 1015.10 1015.13 1015.28 1013.46 1010.04 1009.77 1009.47 1009.44 1009.50 1009.56 1009.84 1010.19 1010.15 1010.39 1010.87 1010.98 1010.68 1010.58 1010.63 1010.59 1010.28 1008.99 1008.71 1008.85 1009.29 1009.38 1008.99 1008.97 1009.28 1009.31 1009.77 1010.76 1010.87 1011.27
1021.58 1020.91 1020.20 1019.39 1018.42 1017.36 1016.38 1015.56 1014.91 1014.40 1014.63 1014.83 1015.13 1014.67 1012.26 1009.66 1009.58 1008.41 1008.72 1008.97 1009.12 1009.54 1010.06 1010.17 1010.33 1010.81 1010.92 1011.32 1011.69 1011.71 1011.22 1010.66 1009.63 1008.75 1009.06 1009.69 1008.73 1008.01 1008.20 1008.70 1009.08 1009.88 1010.22 1010.66 1011.14
1021.47 1020.81 1020.09 1019.15 1018.15 1017.02 1015.99 1014.96 1014.70 1014.71 1014.84 1014.75 1014.29 1014.23 1011.11 1009.49 1008.65 1008.21 1008.19 1008.51 1008.92 1009.36 1009.95 1010.21 1010.69 1011.19 1011.76 1011.89 1012.37 1012.18 1011.67 1011.03 1010.42 1009.00 1008.64 1008.73 1008.12 1007.19 1007.67 1008.35 1008.92 1009.99 1010.15 1010.55 1010.66
1021.48 1020.69 1019.84 1018.92 1017.95 1016.92 1015.90 1014.95 1015.38 1015.13 1014.41 1013.67 1012.88 1011.97 1010.34 1009.25 1008.19 1007.89 1007.89 1008.37 1008.96 1009.52 1010.04 1010.34 1011.13 1011.56 1011.72 1011.86 1011.69 1011.80 1011.75 1011.50 1010.09 1009.25 1009.53 1008.59 1008.18 1007.58 1008.23 1008.78 1009.29 1009.66 1010.06 1010.35 1011.29
1021.43 1020.63 1019.73 1018.77 1017.64 1016.74 1016.56 1016.47 1017.07 1017.28 1015.19 1012.29 1011.14 1010.66 1009.58 1009.63 1009.57 1008.05 1007.75 1008.57 1009.17 1009.81 1010.15 1010.69 1010.70 1010.87 1011.09 1011.31 1011.47 1011.49 1011.42 1010.94 1010.05 1009.13 1009.35 1008.52 1008.51 1007.92 1008.41 1008.56 1008.65 1009.47 1009.83 1010.19 1011.48
1021.31 1020.64 1019.77 1018.52 1017.38 1017.00 1017.68 1016.65 1016.53 1016.63 1015.57 1011.14 1010.04 1009.41 1008.85 1009.35 1009.21 1008.17 1008.00 1008.10 1008.76 1009.72 1010.27 1010.61 1010.31 1010.19 1010.78 1010.94 1011.23 1011.21 1011.20 1010.58 1010.60 1009.55 1009.24 1009.08 1009.49 1009.29 1009.21 1009.26 1009.51 1010.40 1010.51 1011.01 1011.40
1021.43 1020.85 1020.18 1018.80 1017.72 1018.68 1017.32 1016.22 1016.04 1016.01 1015.07 1010.99 1009.26 1008.07 1008.16 1008.21 1008.29 1007.37 1007.50 1008.01 1008.69 1009.23 1010.11 1010.32 1009.73 1009.82 1010.19 1010.46 1010.78 1010.89 1010.14 1010.41 1010.51 1010.60 1010.18 1010.00 1010.86 1010.53 1010.33 1010.31 1010.30 1010.83 1011.31 1011.96 1012.67
1021.42 1020.90 1020.53 1020.13 1019.94 1019.02 1017.02 1016.31 1015.79 1015.55 1014.20 1009.52 1008.35 1007.51 1007.75 1007.77 1007.21 1006.89 1006.64 1007.44 1008.32 1009.00 1009.75 1009.67 1009.38 1009.40 1009.56 1009.44 1010.00 1009.88 1009.84 1010.19 1010.28 1010.63 1010.71 1010.92 1011.47 1011.20 1011.18 1011.11 1010.85 1010.93 1011.67 1012.43 1012.92
1021.24 1020.82 1020.56 1020.24 1020.24 1018.01 1017.14 1016.59 1016.11 1015.86 1012.75 1009.32 1008.15 1007.97 1008.37 1007.87 1007.11 1006.79 1006.74 1007.09 1007.82 1008.72 1009.17 1009.28 1008.85 1008.82 1008.67 1008.60 1009.23 1009.20 1009.71 1010.33 1011.29 1011.43 1011.76 1011.45 1011.74 1011.61 1011.38 1010.62 1010.71 1011.01 1011.51 1012.33 1013.13
1020.93 1020.42 1020.55 1020.26 1018.59 1017.47 1017.27 1016.89 1016.89 1015.43 1012.01 1010.42 1009.36 1008.83 1008.33 1008.11 1007.73 1007.21 1007.46 1007.81 1008.56 1009.27 1009.69 1009.50 1008.93 1008.57 1008.35 1008.36 1008.49 1009.19 1010.46 1011.47 1012.09 1012.55 1012.61 1011.70 1012.05 1010.81 1010.09 1009.68 1009.54 1010.20 1011.00 1011.94 1012.95
1020.41 1019.67 1018.99 1018.33 1017.89 1017.81 1017.59 1017.62 1016.94 1014.22 1012.79 1011.23 1010.53 1009.39 1009.16 1008.65 1008.24 1008.10 1008.20 1008.67 1008.86 1009.30 1010.06 1009.91 1009.01 1008.09 1007.97 1008.05 1008.48 1009.03 1010.22 1011.47 1012.31 1013.03 1012.62 1011.93 1011.33 1010.12 1010.04 1009.24 1009.42 1010.50 1011.98 1012.94 1013.52
1019.89 1019.27 1019.02 1017.35 1017.54 1017.81 1018.05 1018.15 1016.19 1014.54 1013.34 1012.46 1011.18 1010.67 1010.36 1009.91 1009.51 1008.89 1008.88 1008.75 1008.45 1008.72 1009.64 1009.64 1008.99 1007.61 1007.27 1007.28 1007.88 1008.67 1009.64 1010.06 1011.50 1012.83 1012.68 1011.79 1010.79 1010.34 1010.13 1009.78 1010.39 1011.39 1012.56 1013.68 1014.34
1020.86 1020.10 1018.67 1016.89 1017.09 1017.48 1018.34 1017.50 1016.05 1014.57 1013.76 1013.13 1012.75 1012.18 1011.96 1011.49 1010.67 1010.11 1009.30 1008.73 1008.55 1008.64 1008.79 1009.13 1009.05 1007.80 1007.08 1007.21 1007.54 1007.89 1008.76 1010.14 1011.68 1012.57 1013.01 1012.03 1011.10 1010.45 1010.53 1010.65 1011.23 1011.72 1012.42 1013.56 1014.31
1020.99 1020.03 1017.15 1016.86 1017.14 1017.53 1018.13 1017.35 1015.78 1014.62 1014.09 1013.81 1013.51 1013.13 1012.76 1012.39 1011.83 1011.22 1010.24 1009.24 1008.64 1008.79 1008.61 1009.08 1009.50 1007.52 1007.79 1007.59 1007.56 1008.13 1008.72 1010.06 1011.17 1011.91 1012.20 1011.96 1010.97 1008.62 1008.91 1009.62 1010.02 1011.05 1012.00 1012.85 1013.72
1021.34 1020.33 1017.46 1017.32 1017.88 1018.11 1017.93 1016.65 1015.65 1014.59 1014.36 1014.22 1013.79 1013.47 1013.38 1013.10 1012.74 1012.03 1011.01 1009.76 1009.47 1009.36 1009.30 1009.51 1009.88 1009.05 1008.16 1007.22 1007.23 1007.48 1008.00 1009.09 1010.84 1011.41 1011.59 1010.85 1008.96 1007.67 1007.71 1008.23 1009.63 1010.88 1011.66 1012.33 1012.89
1022.15 1020.62 1017.84 1017.32 1018.24 1018.47 1017.49 1016.52 1015.63 1015.14 1014.63 1014.44 1014.07 1013.84 1013.73 1013.89 1013.71 1012.72 1011.65 1010.55 1010.18 1010.00 1009.91 1009.89 1010.50 1010.37 1008.91 1007.81 1007.61 1007.53 1007.61 1008.20 1009.27 1010.05 1010.47 1010.57 1008.47 1007.60 1007.52 1008.66 1009.50 1010.32 1011.06 1011.83 1012.92
1022.90 1021.35 1019.15 1018.18 1017.90 1017.78 1017.66 1016.96 1016.08 1015.21 1014.85 1014.69 1014.36 1014.10 1014.38 1014.45 1014.23 1013.82 1013.10 1011.85 1011.25 1010.89 1010.37 1010.43 1011.03 1010.86 1010.05 1009.24 1008.51 1007.50 1007.03 1007.31 1008.15 1009.37 1009.25 1008.48 1008.09 1007.94 1008.26 1008.45 1009.19 1009.86 1010.44 1011.27 1012.45
1023.14 1022.07 1021.06 1019.61 1019.11 1018.13 1017.48 1017.27 1016.71 1016.02 1015.15 1014.97 1015.05 1015.29 1015.37 1015.69 1015.40 1015.11 1014.90 1014.28 1013.01 1012.01 1011.36 1011.34 1011.35 1010.76 1009.89 1009.25 1008.20 1007.28 1006.68 1006.63 1007.04 1007.20 1008.09 1007.20 1007.38 1006.82 1007.07 1007.54 1007.82 1007.95 1010.17 1011.59 1012.46
1022.92 1022.60 1021.71 1020.61 1019.67 1018.65 1017.93 1017.53 1017.12 1016.78 1016.26 1015.69 1015.91 1016.22 1016.19 1016.41 1016.67 1016.82 1016.46 1016.03 1014.92 1013.28 1013.33 1012.63 1011.92 1011.18 1010.13 1008.88 1007.93 1006.84 1005.91 1005.71 1005.80 1005.92 1006.10 1006.20 1006.27 1005.97 1006.39 1007.48 1008.27 1008.54 1009.58 1010.79 1011.70
1022.70 1022.46 1022.29 1021.06 1020.12 1019.40 1018.34 1018.08 1017.75 1017.53 1017.07 1016.56 1016.56 1016.73 1016.76 1016.86 1017.03 1016.75 1016.27 1015.89 1015.35 1014.91 1014.54 1013.84 1012.74 1011.97 1010.44 1009.30 1008.05 1006.40 1004.26 1004.44 1004.69 1004.57 1004.80 1005.24 1005.34 1006.07 1006.81 1006.81 1007.21 1007.98 1008.67 1009.45 1010.29
Wind_Speed
16 16 16 17 16 17 17 17 16 16 16 16 15 15 14 14 14 2 8 14 9 7 3 3 3 3 2 1 3 4 5 3 5 5 2 4 3 1 4 2 3 0 2 8 16
17 17 17 17 18 17 17 17 17 17 17 16 16 15 13 11 2 8 13 10 11 10 5 5 2 1 2 1 1 5 4 8 8 6 4 6 5 8 1 3 5 10 10 11 22
18 18 18 19 19 18 18 18 17 17 16 16 15 14 12 7 4 9 1 15 14 7 3 5 4 2 1 2 3 5 6 5 3 6 9 9 5 6 5 8 12 21 14 17 19
17 19 20 20 20 20 20 20 19 19 18 16 14 12 10 2 4 1 4 6 14 9 4 5 3 5 2 4 3 2 9 4 6 8 8 11 9 5 10 9 9 11 22 18 19
18 20 20 21 21 21 21 21 21 19 18 15 12 9 3 2 12 6 6 13 8 9 7 6 4 5 4 3 1 5 5 4 8 4 10 11 19 11 20 20 3 6 13 15 14
19 20 22 23 23 21 20 20 20 19 17 14 10 4 0 5 5 5 8 8 5 6 6 7 7 8 2 3 3 4 5 9 6 7 5 15 6 6 18 12 10 8 10 8 6
20 21 23 24 23 23 22 21 20 18 17 11 5 3 0 17 2 5 3 2 7 5 6 5 5 5 1 7 3 3 5 8 5 3 5 9 3 16 11 9 12 13 5 3 6
20 21 24 24 24 24 24 23 22 20 12 6 6 2 9 5 3 8 4 5 6 6 3 6 6 3 3 3 8 4 5 3 7 3 4 3 9 14 10 9 13 14 9 9 7
20 22 24 25 25 26 26 26 19 6 4 10 4 3 11 7 4 8 7 6 5 4 2 1 5 5 3 2 6 7 2 0 9 2 6 6 12 5 12 16 15 9 9 12 7
21 22 24 26 27 27 28 19 5 4 3 4 3 2 4 3 4 3 5 5 5 3 2 5 3 1 4 5 4 2 3 3 4 7 9 14 16 10 15 18 14 8 8 10 14
23 23 25 27 28 28 13 3 7 4 2 7 5 6 7 7 5 3 5 6 3 2 4 2 4 6 7 6 4 1 1 3 11 11 4 8 12 10 3 7 9 9 10 12 9
23 24 26 28 29 24 2 7 5 3 12 12 18 16 17 5 6 6 4 6 7 7 2 3 6 8 4 3 3 3 4 9 10 8 4 9 9 4 5 6 14 13 12 12 10
20 23 26 29 31 4 3 2 4 2 5 10 6 6 7 11 9 10 5 4 4 6 6 8 7 4 4 3 3 3 4 7 7 7 4 5 6 6 5 5 3 4 2 4 15
19 20 23 32 6 6 5 8 8 3 4 9 4 7 4 9 6 10 7 6 2 10 7 6 7 7 4 6 6 6 9 10 6 2 2 3 6 6 4 2 2 1 4 5 6
19 20 19 14 5 4 6 11 11 4 5 3 2 1 2 8 3 4 5 4 8 5 6 7 2 4 6 10 8 12 6 8 7 5 3 2 3 6 4 5 7 5 3 5 6
20 19 20 2 2 8 10 11 3 6 8 7 3 2 3 4 2 1 4 4 5 5 2 7 2 6 8 5 8 7 3 3 4 2 3 4 6 5 7 10 5 3 4 7 8
21 22 15 3 5 2 7 4 6 3 6 5 5 5 4 4 4 3 5 5 6 4 6 6 5 3 3 7 2 4 6 4 5 4 6 4 3 10 3 8 15 16 10 7 8
23 25 5 6 4 1 3 6 3 4 5 5 6 8 1 7 3 4 3 3 1 4 2 6 9 7 4 7 8 6 9 7 7 4 7 4 6 6 7 12 4 8 9 6 8
22 4 4 5 8 3 5 3 9 5 3 7 10 4 6 7 5 1 5 6 9 11 10 6 7 5 6 6 9 2 4 6 6 3 3 4 4 2 6 10 11 12 11 9 7
4 5 5 2 8 5 5 5 5 3 3 3 2 6 5 6 5 8 3 2 3 6 3 5 6 7 9 3 3 7 5 3 4 5 4 5 3 6 4 7 7 13 14 11 10
3 5 4 6 1 6 5 7 4 1 6 4 1 4 2 4 5 3 5 4 3 4 3 5 6 18 3 6 8 1 1 2 4 5 8 3 8 9 13 16 20 16 13 15 14
2 3 2 2 4 1 4 6 3 5 4 4 4 7 5 2 4 3 5 3 7 3 2 1 4 8 14 12 5 6 9 7 6 6 3 5 9 4 13 19 14 14 15 14 15
2 3 5 4 2 2 3 2 2 3 2 3 3 1 1 2 4 6 5 4 8 6 2 2 2 4 12 6 3 5 7 5 3 4 7 6 8 3 8 14 14 17 15 15 13
2 2 5 3 1 6 3 3 2 3 5 5 5 4 4 3 3 5 5 7 13 8 6 4 4 8 8 7 5 5 7 7 8 4 4 9 7 4 8 14 15 17 17 17 14
1 3 1 2 1 3 3 0 2 3 2 4 3 4 3 3 4 2 5 6 10 9 5 3 6 6 7 9 10 17 7 7 9 8 8 12 9 11 16 18 23 25 16 16 17
2 1 4 3 4 1 5 6 6 2 2 3 1 3 2 3 1 3 5 2 7 7 7 6 5 3 7 8 6 8 15 18 8 4 6 6 8 5 5 8 12 20 20 20 19
2 2 3 4 2 1 3 2 3 0 3 3 3 2 4 2 5 10 12 12 11 8 2 4 3 2 7 4 9 7 12 16 11 6 9 7 10 5 3 15 17 19 22 24 22
Wind_Direction
359 356 352 348 343 344 341 339 334 335 331 329 327 323 322 322 311 132 242 218 183 151 79 46 27 350 91 261 153 117 66 244 217 178 185 176 141 256 301 160 246 171 211 169 141
355 351 347 343 342 341 337 335 332 330 328 331 325 322 323 326 290 247 245 209 194 144 126 139 104 30 27 239 191 107 134 226 190 162 174 194 162 162 218 225 238 212 236 157 143
351 347 344 342 340 337 334 330 328 325 325 326 321 322 323 323 331 248 229 210 183 167 132 135 118 103 104 303 201 170 195 235 207 200 161 176 182 178 177 245 224 198 179 138 146
348 346 343 339 337 333 331 327 324 324 325 323 321 320 320 279 281 250 34 199 158 162 156 121 101 115 161 223 204 178 247 244 261 178 138 179 151 225 201 222 236 171 165 151 165
348 345 340 337 335 330 326 322 317 319 318 316 315 314 295 341 252 291 49 114 123 145 163 140 147 146 203 221 239 206 266 218 260 195 217 152 191 187 223 232 246 165 155 180 188
346 343 340 336 332 326 321 315 312 313 311 307 302 313 190 268 252 309 104 112 137 130 162 154 191 200 222 258 182 214 270 286 273 289 189 171 173 156 240 220 199 204 199 180 171
345 341 337 334 330 324 319 313 310 306 302 288 259 221 199 237 100 59 33 134 159 189 168 196 185 65 24 314 248 282 308 328 299 101 155 123 84 229 241 182 187 212 147 136 152
344 339 335 332 328 322 317 314 309 301 288 247 187 193 247 251 318 289 165 249 192 207 241 156 143 158 195 277 351 356 39 26 291 334 191 141 256 226 238 189 204 215 155 176 187
341 337 333 331 328 323 319 314 313 314 161 145 133 153 265 303 265 250 157 210 139 181 222 184 143 191 355 87 8 5 239 301 314 311 145 218 278 225 199 199 213 192 176 187 181
341 337 334 331 328 324 323 311 279 105 173 207 257 2 276 295 294 246 206 155 196 81 172 152 85 137 34 71 232 259 353 321 265 302 358 309 276 279 199 191 201 161 185 180 178
340 336 335 333 329 327 339 14 11 349 357 230 208 254 293 299 317 278 176 122 105 127 178 182 104 211 229 204 203 248 200 278 283 274 257 253 254 287 111 138 172 194 185 198 155
339 337 336 333 329 323 314 76 70 305 298 243 246 243 249 47 316 304 149 140 146 191 139 11 244 225 212 201 221 279 304 286 283 269 136 299 344 29 161 217 199 192 205 175 140
336 337 337 334 324 24 315 85 339 317 265 291 217 227 222 158 212 265 160 163 151 150 179 185 226 118 173 257 260 256 230 275 242 322 298 338 351 352 25 23 73 28 324 176 164
332 336 341 334 57 330 298 318 332 260 4 279 254 266 161 147 239 206 197 150 184 186 160 221 249 232 189 232 165 274 197 246 268 288 225 56 275 315 330 16 334 144 132 107 110
328 332 341 344 288 319 295 330 319 64 340 257 162 81 154 173 190 236 169 132 185 173 134 233 205 186 200 228 150 239 144 223 242 211 106 335 72 280 355 296 254 244 196 132 126
323 326 336 349 305 248 317 309 42 46 256 321 110 104 80 293 261 20 133 94 169 169 223 225 255 165 218 249 170 260 287 76 69 104 52 247 137 267 211 208 236 256 211 148 124
318 316 316 242 236 320 316 30 44 158 318 354 344 342 205 214 263 53 150 145 158 127 258 340 269 251 214 304 346 116 73 323 339 352 215 207 98 231 226 226 202 200 188 150 118
318 312 255 210 248 287 20 52 186 252 265 338 333 314 351 19 296 188 118 219 237 98 110 199 304 198 181 184 212 193 158 159 222 216 243 260 234 254 270 245 204 124 133 114 101
325 332 283 259 184 129 85 110 205 221 316 352 331 16 4 348 38 21 198 224 205 171 181 163 266 272 177 189 147 250 200 207 126 354 54 232 286 288 13 60 111 129 128 144 138
327 351 279 304 157 89 82 223 237 236 8 345 323 28 356 325 23 25 301 280 235 202 28 264 276 236 257 149 249 166 178 21 349 154 240 284 262 236 222 171 159 161 165 161 155
32 352 268 160 149 53 163 227 269 223 53 37 2 317 306 317 14 329 273 310 44 348 157 151 155 264 51 183 216 294 194 58 140 141 175 217 259 218 200 187 184 186 171 169 171
34 335 306 66 61 48 165 191 321 304 74 288 233 220 235 10 305 254 248 236 31 320 4 318 175 255 243 247 244 207 211 158 139 264 244 174 258 216 201 191 176 169 180 180 181
32 267 297 131 171 261 272 245 215 275 266 262 283 215 81 247 277 221 244 311 349 25 75 300 341 354 341 347 26 211 211 177 129 90 197 184 261 347 131 152 172 179 184 183 172
9 337 311 39 126 155 154 267 261 300 270 234 260 290 15 346 227 293 327 338 341 332 266 138 171 178 208 234 293 248 215 187 159 144 222 218 241 236 164 163 174 186 189 183 172
49 259 190 290 18 127 138 334 285 304 259 7 82 79 91 303 312 130 22 324 316 316 318 169 216 191 245 252 267 247 232 192 181 206 187 252 206 230 189 182 186 187 166 170 176
144 355 348 291 294 202 164 203 215 290 304 292 54 1 153 198 316 311 18 343 253 317 11 324 283 293 281 284 336 280 243 236 230 174 240 247 256 218 171 125 159 179 174 177 174
292 323 102 297 320 127 188 99 64 46 266 24 146 249 208 177 299 264 239 236 238 258 253 256 212 6 270 335 318 292 228 227 226 191 173 208 229 144 167 179 183 180 180 178 180